This demonstration page uses our WeatherBlox Daily Observations layout. Learn more.

Left ArrowRight Arrow

44.8408, -93.29828

Hourly Observations for August 23, 2019

Temp ( °F °C ) Dew Point ( °F °C ) Humidity (%) Winds ( mph kmh ) Pressure ( in mb ) Visibility ( mi km ) Precip ( " mm )
12:53 am 00:53 Clear 62 16.7 51 10.6 67 67 E 8 13 30.14 1021 10 16 0.00 0.00
1:53 am 01:53 Clear 61 16.1 51 10.6 70 70 E 7 11 30.14 1021 10 16 0.00 0.00
2:53 am 02:53 Clear 60 15.6 51 10.6 72 72 E 7 11 30.14 1021 10 16 0.00 0.00
3:53 am 03:53 Clear 59 15 51 10.6 75 75 E 5 7 30.15 1021 10 16 0.00 0.00
4:53 am 04:53 Clear 58 14.4 51 10.6 78 78 ENE 6 9 30.16 1021 10 16 0.00 0.00
5:53 am 05:53 Partly Cloudy 58 14.4 52 11.1 81 81 ENE 6 9 30.18 1022 10 16 0.00 0.00
6:53 am 06:53 Mostly Cloudy 58 14.4 52 11.1 81 81 ENE 5 7 30.19 1022 10 16 0.00 0.00
7:53 am 07:53 Mostly Sunny 60 15.6 54 12.2 80 80 E 8 13 30.21 1023 10 16 0.00 0.00
8:53 am 08:53 Mostly Sunny 63 17.2 56 13.3 78 78 ESE 10 17 30.20 1023 10 16 0.00 0.00
9:53 am 09:53 Partly Cloudy 66 18.9 57 13.9 73 73 ESE 9 15 30.21 1023 10 16 0.00 0.00
10:53 am 10:53 Partly Cloudy 70 21.1 59 15 68 68 ESE 12 19 30.22 1023 10 16 0.00 0.00
11:53 am 11:53 Partly Cloudy 71 21.7 58 14.4 63 63 SE 14 22 30.21 1023 10 16 0.00 0.00
12:53 pm 12:53 Partly Cloudy 73 22.8 59 15 62 62 ESE 12 19 30.20 1023 10 16 0.00 0.00
1:53 pm 13:53 Partly Cloudy 75 23.9 58 14.4 55 55 SE 8 13 30.19 1022 10 16 0.00 0.00
2:53 pm 14:53 Mostly Cloudy 77 25 59 15 54 54 SSE 10 17 30.18 1022 10 16 0.00 0.00
3:53 pm 15:53 Mostly Cloudy 76 24.4 58 14.4 54 54 VRB 7 11 30.17 1022 10 16 0.00 0.00
4:53 pm 16:53 Mostly Cloudy 77 25 58 14.4 52 52 E 8 13 30.17 1022 10 16 0.00 0.00
5:53 pm 17:53 Mostly Sunny 76 24.4 58 14.4 54 54 SE 12 19 30.17 1022 10 16 0.00 0.00
6:53 pm 18:53 Mostly Sunny 75 23.9 58 14.4 55 55 ESE 13 20 30.16 1022 10 16 0.00 0.00
7:53 pm 19:53 Mostly Sunny 73 22.8 58 14.4 59 59 SE 8 13 30.17 1022 10 16 0.00 0.00
8:53 pm 20:53 Partly Cloudy 71 21.7 58 14.4 63 63 ESE 12 19 30.19 1022 10 16 0.00 0.00
9:53 pm 21:53 Mostly Cloudy 70 21.1 58 14.4 66 66 ESE 12 19 30.20 1023 10 16 0.00 0.00
10:53 pm 22:53 Mostly Cloudy 68 20 58 14.4 70 70 SE 9 15 30.19 1022 10 16 0.00 0.00
11:53 pm 23:53 Mostly Clear 67 19.4 58 14.4 73 73 SE 9 15 30.20 1023 10 16 0.00 0.00

Powered by AerisWeather